KY4OP-13 Weather Reports


time (UTC)temp
F
wind
direction
speed
knots
gust
knots
rain 1hr
in
rain 24hr
in
rain mn
in
humidity
%
barometer
mb
20260504220905 73 191 0.9 3.5 0.00 0.00 0.00 44 1012.4
20260504220401 73 218 1.7 3.5 0.00 0.00 0.00 43 1012.5
20260504215859 74 244 6.1 9.6 0.00 0.00 0.00 41 1012.4
20260504215355 73 184 6.1 8.7 0.00 0.00 0.00 42 1012.4
20260504214851 73 233 3.5 5.2 0.00 0.00 0.00 44 1012.4
20260504214348 73 252 4.3 5.2 0.00 0.00 0.00 43 1012.3
20260504213845 73 211 4.3 6.1 0.00 0.00 0.00 42 1012.4
20260504213341 74 173 1.7 2.6 0.00 0.00 0.00 43 1012.3
20260504212838 75 228 3.5 5.2 0.00 0.00 0.00 40 1012.1
20260504212334 76 208 7.8 11.3 0.00 0.00 0.00 41 1012.1
20260504211832 76 205 0.0 5.2 0.00 0.00 0.00 41 1012.3
20260504211328 76 229 5.2 7.0 0.00 0.00 0.00 38 1012.5
20260504210826 76 250 1.7 2.6 0.00 0.00 0.00 39 1012.4
20260504210323 76 214 4.3 5.2 0.00 0.00 0.00 40 1012.0
20260504205820 76 155 4.3 7.8 0.00 0.00 0.00 40 1012.2
20260504205318 76 208 5.2 9.6 0.00 0.00 0.00 40 1012.1
20260504204816 76 264 3.5 5.2 0.00 0.00 0.00 40 1011.8
20260504204314 76 222 4.3 5.2 0.00 0.00 0.00 38 1012.1
20260504203813 77 230 1.7 2.6 0.00 0.00 0.00 38 1012.2
20260504203310 77 127 0.9 1.7 0.00 0.00 0.00 39 1012.4
20260504202810 76 241 3.5 6.1 0.00 0.00 0.00 38 1012.4
20260504202308 76 210 4.3 7.0 0.00 0.00 0.00 38 1012.7
20260504201804 76 252 1.7 7.0 0.00 0.00 0.00 42 1012.6
20260504201301 76 236 0.9 5.2 0.00 0.00 0.00 39 1012.6
20260504200759 75 228 7.8 13.9 0.00 0.00 0.00 37 1012.6
20260504200255 76 230 6.1 12.2 0.00 0.00 0.00 38 1012.5
20260504195752 75 270 7.8 12.2 0.00 0.00 0.00 39 1012.5
20260504195247 75 248 7.0 11.3 0.00 0.00 0.00 38 1012.5
20260504194745 75 246 7.8 8.7 0.00 0.00 0.00 36 1012.7
20260504194241 74 216 9.6 12.2 0.00 0.00 0.00 39 1012.8
20260504193737 74 270 6.1 11.3 0.00 0.00 0.00 37 1012.8
20260504193235 74 233 7.8 12.2 0.00 0.00 0.00 36 1012.9
20260504192733 74 219 6.1 7.0 0.00 0.00 0.00 36 1012.8
20260504192231 74 144 6.1 8.7 0.00 0.00 0.00 37 1013.0
20260504191729 73 242 1.7 11.3 0.00 0.00 0.00 39 1013.1
20260504191226 75 244 7.0 14.8 0.00 0.00 0.00 37 1013.1
20260504190721 76 222 7.0 9.6 0.00 0.00 0.00 37 1013.2
20260504190218 76 252 8.7 11.3 0.00 0.00 0.00 36 1013.1
20260504185714 76 224 4.3 11.3 0.00 0.00 0.00 37 1013.2
20260504185211 77 238 5.2 7.8 0.00 0.00 0.00 36 1013.1
20260504184707 76 176 3.5 7.8 0.00 0.00 0.00 37 1013.1
20260504184203 76 211 9.6 12.2 0.00 0.00 0.00 36 1013.2
20260504183659 76 124 0.9 7.8 0.00 0.00 0.00 38 1013.4
20260504183156 76 265 3.5 8.7 0.00 0.00 0.00 36 1013.4
20260504182654 76 200 5.2 6.1 0.00 0.00 0.00 38 1013.6
20260504182151 75 228 5.2 7.8 0.00 0.00 0.00 36 1013.5
20260504181649 75 226 5.2 7.0 0.00 0.00 0.00 39 1013.9
20260504181146 74 200 5.2 9.6 0.00 0.00 0.00 37 1013.8
20260504180645 75 226 4.3 8.7 0.00 0.00 0.00 36 1013.9
20260504180143 75 240 5.2 7.8 0.00 0.00 0.00 37 1013.8
20260504175640 75 232 5.2 6.1 0.00 0.00 0.00 35 1013.9
20260504175137 76 194 6.1 7.8 0.00 0.00 0.00 35 1014.1
20260504174636 75 246 3.5 5.2 0.00 0.00 0.00 39 1014.2
20260504174131 74 182 3.5 7.0 0.00 0.00 0.00 37 1014.5
20260504173629 73 248 4.3 7.0 0.00 0.00 0.00 39 1014.3
20260504173126 74 218 7.8 9.6 0.00 0.00 0.00 36 1014.3
20260504172622 74 158 4.3 7.0 0.00 0.00 0.00 40 1014.3
20260504172119 73 227 1.7 2.6 0.00 0.00 0.00 37 1014.3
20260504171615 75 186 6.1 9.6 0.00 0.00 0.00 37 1014.6
20260504171113 74 233 2.6 5.2 0.00 0.00 0.00 39 1014.6
20260504170608 73 230 3.5 6.1 0.00 0.00 0.00 39 1014.7
20260504170107 73 204 4.3 6.1 0.00 0.00 0.00 39 1014.8
20260504150952 68 218 2.6 7.0 0.00 0.00 0.00 41 1016.2
20260504150449 68 223 2.6 7.8 0.00 0.00 0.00 44 1016.2
20260504140916 64 224 1.7 6.1 0.00 0.00 0.00 49 1016.2
20260504140411 64 213 6.1 8.7 0.00 0.00 0.00 48 1016.3
20260504130337 56 218 4.3 7.0 0.00 0.00 0.00 56 1017.0
20260504120300 49 215 0.9 1.7 0.00 0.00 0.00 73 1017.2
20260504110224 42 281 0.0 0.0 0.00 0.00 0.00 90 1017.5
20260504100143 42 280 0.0 0.0 0.00 0.00 0.00 88 1017.1
20260504090105 44 280 0.0 0.0 0.00 0.00 0.00 81 1017.4
20260504081535 44 281 0.0 0.0 0.00 0.00 0.00 80 1017.2
20260504081031 44 281 0.0 0.0 0.00 0.00 0.00 81 1017.4
20260504080528 44 281 0.0 0.0 0.00 0.00 0.00 80 1017.3
20260504050340 46 40 0.0 0.0 0.00 0.00 0.00 72 1017.8
20260504045837 45 40 0.0 0.9 0.00 0.00 0.00 72 1017.5
20260504045332 45 41 0.0 0.9 0.00 0.00 0.00 75 1017.5
20260504044830 44 41 0.0 0.0 0.00 0.00 0.00 76 1017.7
20260504044327 44 41 0.0 0.0 0.00 0.00 0.00 76 1017.8
20260504043824 44 41 0.0 0.0 0.00 0.00 0.00 77 1017.7
20260504043321 44 41 0.0 0.0 0.00 0.00 0.00 77 1017.5
20260504042819 44 41 0.0 0.0 0.00 0.00 0.00 77 1017.7
20260504042315 44 41 0.0 0.0 0.00 0.00 0.00 77 1017.8
20260504041811 44 41 0.0 0.0 0.00 0.00 0.00 77 1017.5
20260504041307 43 41 0.0 0.0 0.00 0.00 0.00 77 1017.7
20260504040804 43 41 0.0 0.0 0.00 0.00 0.00 77 1017.5
20260504040301 43 41 0.0 0.0 0.00 0.00 0.00 77 1017.7
20260504035757 43 41 0.0 0.0 0.00 0.00 0.00 77 1017.4
20260504035254 44 41 0.0 0.0 0.00 0.00 0.00 76 1017.5
20260504034751 44 41 0.0 0.0 0.00 0.00 0.00 77 1017.4
20260504034249 44 41 0.0 0.0 0.00 0.00 0.00 76 1017.5
20260504033746 44 41 0.0 0.0 0.00 0.00 0.00 77 1017.5
20260504033244 43 41 0.0 0.0 0.00 0.00 0.00 77 1017.4
20260504032740 43 41 0.0 0.0 0.00 0.00 0.00 76 1017.7
20260504032237 43 41 0.0 0.0 0.00 0.00 0.00 75 1017.5
20260504031734 43 41 0.0 0.0 0.00 0.00 0.00 75 1017.8
20260504031232 43 41 0.0 0.0 0.00 0.00 0.00 73 1017.7
20260504030727 43 41 0.0 0.0 0.00 0.00 0.00 73 1017.4
20260504030225 43 41 0.0 0.0 0.00 0.00 0.00 74 1017.5
20260504025721 43 41 0.0 0.0 0.00 0.00 0.00 72 1017.5
20260504025218 42 41 0.0 0.0 0.00 0.00 0.00 72 1017.8
20260504024715 42 41 0.0 0.0 0.00 0.00 0.00 71 1017.5
20260504024211 42 41 0.0 0.0 0.00 0.00 0.00 70 1017.7
20260504023708 43 41 0.0 0.0 0.00 0.00 0.00 69 1017.7
20260504023204 43 41 0.0 0.0 0.00 0.00 0.00 68 1017.5
20260504022701 43 41 0.0 0.0 0.00 0.00 0.00 68 1017.7
20260504022156 43 41 0.0 0.0 0.00 0.00 0.00 66 1017.5
20260504021655 44 41 0.0 0.0 0.00 0.00 0.00 67 1017.7
20260504021150 44 41 0.0 0.0 0.00 0.00 0.00 65 1017.4
20260504020648 44 41 0.0 0.0 0.00 0.00 0.00 64 1017.3
20260504020143 44 41 0.0 0.0 0.00 0.00 0.00 64 1017.4
20260504015641 45 41 0.0 0.0 0.00 0.00 0.00 62 1017.4
20260504015137 45 41 0.0 0.0 0.00 0.00 0.00 60 1017.2
20260504014632 46 41 0.0 0.0 0.00 0.00 0.00 60 1017.3
20260504014130 46 41 0.0 0.0 0.00 0.00 0.00 59 1017.1
20260504013628 47 41 0.0 0.0 0.00 0.00 0.00 60 1017.1
20260504013124 47 41 0.0 0.0 0.00 0.00 0.00 59 1017.1
20260504012621 47 41 0.0 0.0 0.00 0.00 0.00 60 1017.0
20260504012120 47 41 0.0 0.0 0.00 0.00 0.00 59 1017.1
20260504011616 47 41 0.0 0.0 0.00 0.00 0.00 54 1016.9
20260504011112 48 41 0.0 0.0 0.00 0.00 0.00 55 1017.2
20260504010608 49 41 0.0 0.0 0.00 0.00 0.00 55 1017.0
20260504010104 49 41 0.0 0.0 0.00 0.00 0.00 50 1017.0
20260504005601 50 41 0.0 0.0 0.00 0.00 0.00 53 1016.8
20260504005058 50 41 0.0 0.9 0.00 0.00 0.00 53 1016.7
20260504004556 50 41 0.0 0.0 0.00 0.00 0.00 50 1016.9
20260504004053 50 41 0.0 0.0 0.00 0.00 0.00 52 1016.8
20260504003549 51 41 0.9 0.9 0.00 0.00 0.00 50 1016.7
20260504003046 51 41 0.0 0.0 0.00 0.00 0.00 51 1016.6
20260504002542 51 41 0.0 0.0 0.00 0.00 0.00 50 1016.6
20260504002040 52 41 0.0 0.0 0.00 0.00 0.00 50 1016.4
20260504001538 52 41 0.0 0.0 0.00 0.00 0.00 50 1016.5
20260504001034 53 41 0.0 0.0 0.00 0.00 0.00 48 1016.5
20260504000531 54 41 0.0 0.9 0.00 0.00 0.00 46 1016.7
20260504000028 55 41 0.9 0.9 0.00 0.00 0.00 44 1016.6
20260503235527 55 41 0.9 0.9 0.00 0.00 0.00 43 1016.3
20260503235023 56 41 0.0 0.9 0.00 0.00 0.00 44 1016.4
20260503234521 56 41 0.9 0.9 0.00 0.00 0.00 42 1016.5
20260503234019 57 40 0.0 0.0 0.00 0.00 0.00 41 1016.5
20260503233515 58 40 0.0 0.0 0.00 0.00 0.00 39 1016.5
20260503233011 58 40 0.0 0.0 0.00 0.00 0.00 39 1016.4
20260503232508 59 40 0.0 0.0 0.00 0.00 0.00 36 1016.2
20260503232006 61 40 0.0 0.9 0.00 0.00 0.00 36 1016.1
20260503231504 61 39 0.0 0.9 0.00 0.00 0.00 30 1016.3
20260503231000 63 40 0.0 0.9 0.00 0.00 0.00 33 1016.3
20260503230456 63 40 0.0 1.7 0.00 0.00 0.00 30 1016.3
20260503225954 62 55 0.0 0.9 0.00 0.00 0.00 28 1016.3
20260503225451 63 55 0.0 0.0 0.00 0.00 0.00 28 1016.3
20260503224946 63 54 0.9 1.7 0.00 0.00 0.00 27 1016.2
20260503224443 63 66 0.0 1.7 0.00 0.00 0.00 27 1016.0
20260503223941 64 41 0.9 0.9 0.00 0.00 0.00 29 1016.2
20260503223439 63 20 1.7 1.7 0.00 0.00 0.00 26 1016.1
20260503222934 64 93 1.7 1.7 0.00 0.00 0.00 28 1016.2
20260503222433 65 148 0.0 0.9 0.00 0.00 0.00 25 1016.3
20260503221931 65 247 2.6 3.5 0.00 0.00 0.00 27 1016.2
20260503221429 64 30 0.0 2.6 0.00 0.00 0.00 29 1016.3